Regional Weather Roundup
Issued by NWS

Home | Current Version | Previous Version | Graphics & Text | Print | Product List | Glossary On
Versions: 1 2 3 4 5 6 7 8 9 10 11 12 13 14 15 16 17 18 19 20 21 22 23 24 25 26 27 28 29 30 31 32 33 34 35 36 37 38 39 40 41 42 43 44 45 46 47 48 49 50
000
ASUS43 KMPX 081810
RWRMN
WEATHER ROUNDUP FOR MINNESOTA
NATIONAL WEATHER SERVICE TWIN CITIES/CHANHASSEN MN
1200 PM CST THU DEC 08 2016


NOTE: "FAIR" INDICATES FEW OR NO CLOUDS BELOW 12,000 FEET WITH NO
SIGNIFICANT WEATHER AND/OR OBSTRUCTIONS TO VISIBILITY. N/A MEANS
CURRENT SKY AND/OR WEATHER CONDITIONS ARE NOT AVAILABLE.

MNZ060>063-068>070-081900-
   Twin Cities Metro

CITY           SKY/WX    TMP DP  RH WIND       PRES   REMARKS
TWIN CITIES    FLURRIES  23  13  65 NW20G28   30.37R WCI   8
6HR MIN TEMP:  17; 6HR MAX TEMP:  24; 6HR PCP: TRACE;

ST PAUL        CLOUDY    24  15  68 NW15G22   30.38R WCI  11
CRYSTAL        CLOUDY    24  12  60 NW17G25   30.36S WCI  11
BLAINE         FLURRIES  25  16  68 NW17G25   30.35R WCI  11
LAKEVILLE      LGT SNOW  21  18  86 W13       30.36S WCI   9
EDEN PRAIRIE   CLOUDY    24  13  62 NW18G24   30.36R WCI  10
6HR MIN TEMP:  17; 6HR MAX TEMP:  25; 6HR PCP: TRACE;

SOUTH ST PAUL  CLOUDY    24  15  67 NW17      30.37R WCI  11
LAKE ELMO      FLURRIES  27  18  69 NW15      30.35S WCI  15
$$
MNZ001>005-007-008-013>017-022>024-027-028-081900-
   Northwest Minnesota

CITY           SKY/WX    TMP DP  RH WIND       PRES   REMARKS
BEMIDJI        FLURRIES  17  11  78 NW13      30.37S WCI   3
HALLOCK        CLOUDY    16  12  86 N16       30.51  WCI   0
ROSEAU         CLOUDY    18  10  73 N12       30.45R WCI   5
WARROAD        CLOUDY    18  10  73 NW12      30.43R WCI   5
THIEF RVR FALL FLURRIES  18  14  84 N16       30.46R WCI   3
CROOKSTON      FOG       16  12  86 N22       30.51R VSB 1   WCI  -2
FOSSTON        LGT SNOW  16  10  79 NW10      30.43S WCI   3
DETROIT LAKES  LGT SNOW  16  12  86 NW21G26   30.44R WCI  -2
MOORHEAD       MIX PCPN  16  10  79 NW22      30.52S VSB 1   WCI  -2
PARK RAPIDS    FLURRIES  17   8  67 NW16      30.38R WCI   2
$$
MNZ006-009>011-018-025>026-081900-
   North Central Minnesota

CITY           SKY/WX    TMP DP  RH WIND       PRES   REMARKS
BAUDETTE       CLOUDY    20  10  65 N18G26    30.37R WCI   5
FLAG ISLAND    MOSUNNY   18  10  73 NW24      30.40R WCI   0
INTL FALLS     PTSUNNY   21  12  68 NW18      30.31R WCI   6
6HR MIN TEMP:  17; 6HR MAX TEMP:  22; 6HR PCP:  0.01;

WASKISH        CLOUDY    21  16  79 NW10G17   30.37R WCI  10
BIG FORK       FLURRIES  21  16  79 N8        30.32R WCI  12
LONGVILLE      LGT SNOW  19  12  73 NW9       30.35S WCI   9
GRAND RAPIDS   LGT SNOW  20  15  81 NW15      30.33R WCI   6
CRANE LAKE     LGT SNOW  19  16  86 NW6       30.30R WCI  11
ORR            CLOUDY    21  16  79 NW10      30.25S WCI  10
COOK           LGT SNOW  21  16  79 NW5       30.27S WCI  15
$$
MNZ012-019>021-037-081900-
   Northeast Minnesota

CITY           SKY/WX    TMP DP  RH WIND       PRES   REMARKS
DULUTH         PTSUNNY   21  15  78 N17G26    30.23R WCI   7
6HR MIN TEMP:  19; 6HR MAX TEMP:  21; 6HR PCP: TRACE;

ELY            FLURRIES  19  14  79 NW10G17   30.23R WCI   8
HIBBING        CLOUDY    19  13  77 NW15      30.27S WCI   5
EVELETH        MOSUNNY   20  14  75 NW10G22   30.27R WCI   9
DULUTH HARBOR  MOSUNNY   27  18  69 W15       30.30R WCI  15
TWO HARBORS    MOSUNNY   27  18  69 NW6       30.21S WCI  20
SILVER BAY     MOSUNNY   25  16  68 NW9G18    30.20R WCI  15
GRAND MARAIS     N/A     27  16  63 VRB3      30.20R
G MARAIS ARPRT PTSUNNY   19  10  68 NW8G17    30.11S WCI   9
$$
MNZ029>031-032-039>041-046>048-054>057-064-081900-
   West Central Minnesota

CITY           SKY/WX    TMP DP  RH WIND       PRES   REMARKS
FERGUS FALLS   LGT SNOW  14  10  85 NW23G29   30.53S WCI  -5
WHEATON        CLOUDY    16  10  79 W20G26    30.55S WCI  -1
MORRIS         LGT SNOW  16  10  79 NW24      30.48S WCI  -3
ALEXANDRIA     LGT SNOW  16   9  74 NW24      30.42S WCI  -2
ELBOW LAKE     LGT SNOW  14  10  87 NW18G26   30.48S WCI  -3
WADENA         MIX PCPN  16   9  73 NW17G23   30.40S WCI   0
GLENWOOD       LGT SNOW  16  10  79 W21G26    30.43R WCI  -2
APPLETON       CLOUDY    18  10  73 NW20G26   30.51S WCI   1
BENSON         LGT SNOW  18  10  73 N20G26    30.48S WCI   1
ORTONVILLE     CLOUDY    16   7  67 NW21G29   30.52S WCI  -2
MADISON        CLOUDY    19  12  73 NW18G29   30.53S WCI   4
WILLMAR        LGT SNOW  18  12  79 NW20      30.46S WCI   1
$$
MNZ033>034-036-042>043-049>051-058-059-081900-
   Central Minnesota

CITY           SKY/WX    TMP DP  RH WIND       PRES   REMARKS
ST CLOUD       FLURRIES  21  13  71 NW14      30.39R WCI   8
6HR MIN TEMP:  18; 6HR MAX TEMP:  21; 6HR PCP: TRACE;

PAYNESVILLE    FLURRIES  19  13  76 NW17G24   30.43R WCI   4
AITKIN         MIX PCPN  25  12  58 W6G16     30.32S WCI  18
PINE RIVER     CLOUDY    19  10  68 NW12G17   30.38S WCI   7
BRAINERD       CLOUDY    19  11  70 NW14      30.36R WCI   6
STAPLES        FLURRIES  16  10  79 NW15G21   30.39R WCI   1
LONG PRAIRIE   LGT SNOW  19  12  73 W20G25    30.40S WCI   4
LITTLE FALLS   FLURRIES  19  10  68 W15G21    30.39R WCI   5
LITCHFIELD     CLOUDY    21  12  68 NW20G25   30.42S WCI   6
BUFFALO        FLURRIES  22  13  67 W15G21    30.40R WCI   9
MAPLE LAKE     CLOUDY    23  15  70 NW14G25   30.40R WCI  11
HUTCHINSON     FLURRIES  21  15  76 W20G26    30.42S WCI   6
$$
MNZ037-044-045-052-053-081900-
   East Central Minnesota

CITY           SKY/WX    TMP DP  RH WIND       PRES   REMARKS
PRINCETON      CLOUDY    25  16  68 W15G21    30.36R WCI  12
MORA           PTSUNNY   25  16  68 NW20G26   30.34S WCI  11
CAMBRIDGE      FLURRIES  25  14  63 W15       30.33R WCI  12
RUSH CITY      CLOUDY    25  14  63 NW9G17    30.33S WCI  15
MOOSE LAKE     CLOUDY    23  16  74 NW9G16    30.29R WCI  13
HINCKLEY       CLOUDY    27  18  69 NW12      30.32R WCI  16
CLOQUET        CLOUDY    21  14  73 NW14G22   30.26R WCI   8
MCGREGOR       CLOUDY    23  16  74 NW15G21   30.32R WCI  10
$$
MNZ071>073-080-081-089-090-097-098-081900-
   Southwest Minnesota

CITY           SKY/WX    TMP DP  RH WIND       PRES   REMARKS
MONTEVIDEO     CLOUDY    18  10  73 N17G25    30.52S WCI   2
GRANITE FALLS  FLURRIES  19  12  76 NW21      30.52S WCI   2
CANBY          CLOUDY    18   9  70 W20G26    30.54S WCI   1
MARSHALL       CLOUDY    16   9  74 NW22G29   30.50R WCI  -2
REDWOOD FALLS  CLOUDY    18   8  65 NW21G30   30.48S WCI   1
OLIVIA         FLURRIES  18  12  79 NW20G30   30.46S WCI   1
PIPESTONE      CLOUDY    14   9  79 NW18      30.49F WCI  -3
WINDOM         FLURRIES  18  10  73 NW18G28   30.46S WCI   2
WORTHINGTON    FLURRIES  16   9  74 W22       30.48S WCI  -2
JACKSON        CLOUDY    18  10  73 NW18G25   30.46S WCI   2
TRACY          CLOUDY    18  12  76 NW21      30.49S WCI   2
SLAYTON        MOSUNNY   15   9  76 NW22G28   30.48S WCI  -3
$$
MNZ065>067-074>077-082>085-091>093-081900-
   South Central Minnesota

CITY           SKY/WX    TMP DP  RH WIND       PRES   REMARKS
MANKATO        FLURRIES  18  12  77 NW20G26   30.43R WCI   2
NEW ULM        FLURRIES  18  10  73 NW22      30.45S WCI   0
ST JAMES       FLURRIES  18  10  73 W24G30    30.47S WCI   0
FAIRMONT       PTSUNNY   19  11  70 NW25      30.45S WCI   1
GLENCOE        FLURRIES  22  17  80 NW17G26   30.41R WCI   8
OWATONNA       FLURRIES  19  14  79 W20G25    30.37F WCI   4
WASECA         LGT SNOW  19  14  79 W20G25    30.41S WCI   4
ALBERT LEA     FLURRIES  21  16  79 NW16G24   30.39R WCI   7
$$
MNZ078>079-086>088-094>096-081900-
   Southeast Minnesota

CITY           SKY/WX    TMP DP  RH WIND       PRES   REMARKS
ROCHESTER      CLOUDY    20  15  81 NW23      30.32S WCI   3
6HR MIN TEMP:  15; 6HR MAX TEMP:  20; 6HR PCP: TRACE;

RED WING       FLURRIES  25  14  63 NW12G20   30.34R WCI  14
STANTON        FLURRIES  24  18  75 NW12G20   30.35S WCI  13
DODGE CENTER   LGT SNOW  19  16  86 W15       30.34S WCI   5
WINONA         CLOUDY    25  18  74 NW13      30.34R WCI  13
AUSTIN         LGT SNOW  19  14  79 NW18G28   30.36S WCI   4
PRESTON        CLOUDY    19  14  79 NW18G25   30.33R WCI   4
$$
ABBREVIATIONS USED IN REMARKS
   TC - TEMPERATURES IN CELSIUS
  WCI - WIND CHILL INDEX
   HX - HEAT INDEX
  VSB - VISIBILITY
$$



USA.gov is the U.S. government's official web portal to all federal, state and local government web resources and services.